軌道要素
Epoch 2015 Feb. 27.0 TT = JDT 2457080.5
T 2015 Mar. 13.05469 TT MPCW
q 1.9955037 (2000.0) P Q
n 0.01092141 Peri. 244.87821 -0.45073831 +0.83349029
a 20.1194911 Node 341.08604 +0.34981306 -0.16444412
e 0.9008174 Incl. 80.36576 -0.82125867 -0.52749604
P 90.2
From 60 observations 2015 Jan. 8-Oct. 14, mean residual 0".4.
|